FW6662 Weather Reports


Display with metric or nautical units.
time (UTC)temp
F
wind
direction
speed
MPH
gust
MPH
rain 1hr
in
rain 24hr
in
rain mn
in
humidity
%
barometer
mb
20260510061003 50 110 0.0 3.0 0.00 0.30 0.00 99 1011.9
20260510060503 50 110 0.0 1.0 0.00 0.30 0.00 99 1011.9
20260510060024 50 110 0.0 3.0 0.00 0.30 0.00 99 1012.1
20260510055503 50 110 0.0 3.0 0.00 0.30 0.00 99 1012.0
20260510055024 49 110 0.0 1.0 0.00 0.30 0.00 99 1012.2
20260510054503 49 110 0.0 1.0 0.00 0.30 0.00 99 1012.3
20260510054003 49 110 0.0 1.0 0.00 0.30 0.00 99 1012.2
20260510053503 49 102 0.0 3.0 0.00 0.31 0.00 99 1012.2
20260510053003 49 76 0.0 3.0 0.00 0.31 0.00 98 1012.2
20260510052503 49 41 1.0 4.0 0.00 0.31 0.00 98 1012.3
20260510052003 48 54 1.0 4.0 0.00 0.31 0.00 98 1012.2
20260510051503 48 37 1.0 4.0 0.00 0.31 0.00 98 1012.3
20260510051024 48 13 1.0 6.0 0.00 0.31 0.00 97 1012.5
20260510050503 49 346 3.0 9.0 0.00 0.31 0.00 97 1012.2
20260510050003 49 329 1.0 9.0 0.00 0.31 0.00 98 1012.1
20260510045503 49 0 0.0 0.0 0.00 0.31 0.00 98 1011.5
20260510045024 49 0 0.0 0.0 0.00 0.31 0.00 98 1011.5
20260510044524 49 0 0.0 0.0 0.00 0.31 0.00 98 1011.4
20260510044003 49 0 0.0 0.0 0.00 0.31 0.00 98 1011.1
20260510043503 49 0 0.0 0.0 0.00 0.31 0.00 98 1011.4
20260510043003 49 0 0.0 0.0 0.00 0.31 0.00 98 1011.3
20260510042503 50 0 0.0 0.0 0.00 0.31 0.00 98 1011.3
20260510042003 50 0 0.0 0.0 0.00 0.31 0.00 98 1011.4
20260510041503 50 355 0.0 3.0 0.00 0.31 0.00 98 1011.4
20260510041026 49 355 1.0 3.0 0.00 0.31 0.00 98 1011.4
20260510040526 49 355 1.0 3.0 0.00 0.31 0.00 98 1011.3
20260510040005 49 355 1.0 3.0 0.00 0.31 0.00 98 1011.2
20260510035505 49 347 1.0 4.0 0.00 0.31 0.31 98 1011.0
20260510035005 49 346 1.0 4.0 0.00 0.31 0.31 98 1011.1
20260510034505 49 0 0.0 0.0 0.00 0.31 0.31 98 1010.6
20260510034026 49 0 0.0 0.0 0.00 0.31 0.31 98 1010.4
20260510033505 49 0 0.0 0.0 0.00 0.31 0.31 98 1010.3
20260510033026 49 0 0.0 0.0 0.00 0.31 0.31 98 1010.4
20260510032505 49 0 0.0 0.0 0.00 0.31 0.31 98 1010.4
20260510032026 49 0 0.0 0.0 0.00 0.31 0.31 98 1010.5
20260510031526 49 0 0.0 0.0 0.00 0.31 0.31 98 1010.4
20260510031005 49 0 0.0 0.0 0.00 0.31 0.31 98 1010.4
20260510030505 49 0 0.0 0.0 0.00 0.31 0.31 98 1010.3
20260510030005 50 0 0.0 0.0 0.00 0.31 0.31 98 1010.4
20260510025505 50 0 0.0 0.0 0.00 0.31 0.31 98 1010.4
20260510025005 50 0 0.0 0.0 0.00 0.31 0.31 98 1010.5
20260510024505 50 0 0.0 0.0 0.00 0.31 0.31 98 1010.5
20260510024005 50 0 0.0 0.0 0.00 0.31 0.31 98 1010.5
20260510023525 50 0 0.0 0.0 0.00 0.31 0.31 98 1010.5
20260510023026 50 0 0.0 0.0 0.00 0.31 0.31 98 1010.5
20260510022525 50 0 0.0 0.0 0.00 0.31 0.31 98 1010.5
20260510022005 49 0 0.0 0.0 0.00 0.31 0.31 98 1010.5
20260510021505 49 0 0.0 0.0 0.00 0.31 0.31 98 1010.3
20260510021005 49 0 0.0 0.0 0.00 0.31 0.31 98 1010.3
20260510020504 49 0 0.0 0.0 0.00 0.31 0.31 97 1010.2
20260510020005 50 127 0.0 1.0 0.00 0.31 0.31 97 1010.4
20260510015526 50 127 0.0 1.0 0.00 0.31 0.31 97 1010.3
20260510015005 50 127 0.0 1.0 0.00 0.31 0.31 97 1010.3
20260510014504 50 0 0.0 0.0 0.00 0.31 0.31 97 1010.5
20260510014005 50 127 0.0 1.0 0.00 0.31 0.31 97 1010.5
20260510013505 50 127 0.0 1.0 0.00 0.31 0.31 97 1010.3
20260510013005 50 0 0.0 0.0 0.00 0.31 0.31 97 1010.2
20260510012525 50 146 0.0 1.0 0.00 0.31 0.31 97 1010.1
20260510012026 50 146 0.0 3.0 0.00 0.31 0.31 97 1010.0
20260510011504 50 145 0.0 3.0 0.00 0.31 0.31 97 1010.0
20260510011025 51 144 1.0 3.0 0.00 0.31 0.31 97 1010.2
20260510010506 51 144 1.0 3.0 0.00 0.31 0.31 97 1010.1
20260510010005 51 144 0.0 3.0 0.00 0.31 0.31 97 1010.2
20260510005526 51 151 0.0 3.0 0.00 0.31 0.31 97 1010.0
20260510005005 51 161 1.0 4.0 0.00 0.31 0.31 97 1009.8
20260510004505 51 169 1.0 4.0 0.00 0.31 0.31 97 1009.8
20260510004005 51 169 1.0 7.0 0.00 0.31 0.31 97 1009.9
20260510003505 51 163 1.0 7.0 0.00 0.31 0.31 97 1009.8
20260510003005 51 149 1.0 6.0 0.00 0.31 0.31 97 1009.9
20260510002505 51 144 1.0 3.0 0.00 0.31 0.31 97 1009.9
20260510002025 51 145 1.0 6.0 0.00 0.31 0.31 97 1009.9
20260510001504 51 140 1.0 6.0 0.00 0.31 0.31 97 1009.8
20260510001004 51 131 0.0 6.0 0.00 0.31 0.31 97 1009.8
20260510000505 51 147 0.0 6.0 0.00 0.31 0.31 97 1009.8
20260510000005 52 171 1.0 6.0 0.00 0.31 0.31 97 1009.9
20260509235525 52 175 1.0 6.0 0.00 0.31 0.31 96 1009.7
20260509235025 52 192 1.0 3.0 0.00 0.31 0.31 96 1009.7
20260509234504 52 205 1.0 4.0 0.00 0.31 0.31 96 1009.6
20260509234004 52 211 1.0 4.0 0.00 0.31 0.31 96 1009.5
20260509233505 52 220 1.0 4.0 0.00 0.31 0.31 96 1009.5
20260509233005 52 216 1.0 4.0 0.00 0.31 0.31 96 1009.4
20260509232504 52 206 3.0 4.0 0.00 0.31 0.31 96 1009.2
20260509232005 52 203 1.0 6.0 0.00 0.31 0.31 96 1009.2
20260509231504 53 202 1.0 6.0 0.00 0.31 0.31 96 1009.3
20260509231004 53 205 1.0 4.0 0.00 0.31 0.31 96 1009.3
20260509230504 53 212 0.0 3.0 0.00 0.31 0.31 96 1009.5
20260509230004 53 218 0.0 1.0 0.00 0.31 0.31 96 1009.5
20260509225526 53 193 1.0 6.0 0.00 0.31 0.31 96 1009.6
20260509225004 53 196 1.0 6.0 0.00 0.31 0.31 96 1009.3
20260509224504 54 206 1.0 4.0 0.00 0.31 0.31 97 1009.3
20260509224005 54 205 1.0 6.0 0.00 0.31 0.31 97 1009.2
20260509223504 54 199 3.0 6.0 0.00 0.31 0.31 97 1009.2
20260509223005 54 186 3.0 6.0 0.00 0.31 0.31 97 1009.3
20260509222504 54 178 1.0 4.0 0.00 0.31 0.31 97 1009.3
20260509222004 54 187 1.0 4.0 0.00 0.31 0.31 97 1009.3
20260509221525 54 186 1.0 4.0 0.00 0.31 0.31 97 1009.3
20260509221005 54 174 1.0 6.0 0.00 0.31 0.31 98 1009.3
20260509220505 54 167 1.0 7.0 0.00 0.31 0.31 98 1009.3
20260509220005 54 163 1.0 7.0 0.00 0.31 0.31 98 1009.6
20260509215504 54 159 1.0 4.0 0.00 0.31 0.31 98 1009.6
20260509215025 53 173 1.0 6.0 0.00 0.31 0.31 98 1009.6
20260509214504 53 179 1.0 9.0 0.00 0.31 0.31 98 1009.7
20260509214004 53 157 3.0 9.0 0.00 0.31 0.31 98 1009.8
20260509213504 52 157 1.0 7.0 0.00 0.31 0.31 98 1009.7
20260509213005 52 168 1.0 7.0 0.01 0.31 0.31 98 1009.8
20260509212504 52 165 1.0 6.0 0.01 0.32 0.31 98 1009.8
20260509212004 52 152 3.0 7.0 0.01 0.32 0.31 98 1009.8
20260509211504 52 147 1.0 7.0 0.01 0.32 0.31 98 1009.8
20260509211026 52 149 1.0 6.0 0.01 0.32 0.31 98 1009.9
20260509210504 52 146 1.0 7.0 0.01 0.32 0.31 98 1009.8
20260509210004 52 146 3.0 10.0 0.01 0.32 0.31 98 1009.9
20260509205504 52 150 3.0 10.0 0.01 0.32 0.31 98 1009.9
20260509205005 52 149 3.0 9.0 0.01 0.32 0.31 98 1010.0
20260509204504 52 147 3.0 7.0 0.02 0.32 0.31 98 1010.0
20260509204004 52 153 1.0 7.0 0.02 0.32 0.31 97 1010.0
20260509203504 52 159 1.0 4.0 0.02 0.32 0.31 97 1010.0
20260509203004 52 162 0.0 4.0 0.01 0.31 0.30 97 1010.0
20260509202504 52 152 0.0 3.0 0.01 0.31 0.30 98 1010.1
20260509202025 52 171 1.0 6.0 0.01 0.31 0.30 98 1010.0
20260509201525 52 170 3.0 7.0 0.01 0.31 0.30 97 1010.0
20260509201004 52 167 1.0 7.0 0.02 0.31 0.30 97 1009.9
20260509200504 52 171 1.0 6.0 0.02 0.31 0.30 98 1010.1
20260509200025 52 173 1.0 6.0 0.02 0.31 0.30 97 1010.1
20260509195504 52 176 3.0 10.0 0.03 0.31 0.30 98 1010.2
20260509195025 52 177 3.0 10.0 0.03 0.31 0.30 98 1010.0
20260509194504 52 173 3.0 7.0 0.02 0.30 0.29 98 1010.1
20260509194004 52 170 3.0 7.0 0.02 0.30 0.29 98 1010.3
20260509193525 52 170 3.0 12.0 0.02 0.30 0.29 98 1010.3
20260509193004 52 171 4.0 12.0 0.02 0.30 0.29 98 1010.5
20260509192525 52 170 4.0 10.0 0.03 0.30 0.29 98 1010.4
20260509192025 52 170 3.0 10.0 0.03 0.30 0.29 98 1010.6
20260509191504 52 172 3.0 7.0 0.03 0.30 0.29 98 1010.6
20260509191004 52 174 4.0 19.0 0.03 0.29 0.28 98 1010.6
20260509190504 52 174 4.0 19.0 0.03 0.29 0.28 98 1010.7
20260509190005 52 177 4.0 16.0 0.03 0.29 0.28 97 1010.7
20260509185504 52 181 4.0 13.0 0.02 0.28 0.27 98 1010.7
20260509185004 52 176 4.0 9.0 0.03 0.28 0.27 98 1010.7
20260509184504 52 170 4.0 16.0 0.03 0.28 0.27 98 1010.7
20260509184004 52 170 6.0 16.0 0.03 0.28 0.27 98 1010.7
20260509183504 52 170 6.0 13.0 0.03 0.28 0.27 98 1010.7
20260509183004 52 168 6.0 14.0 0.03 0.30 0.27 98 1010.8
20260509182504 52 167 4.0 14.0 0.02 0.29 0.26 97 1010.7
20260509182025 52 168 4.0 12.0 0.02 0.29 0.26 98 1010.7
20260509181504 52 169 4.0 12.0 0.02 0.29 0.26 98 1010.7
20260509181004 52 172 6.0 16.0 0.02 0.28 0.25 98 1010.6
20260509180504 52 181 6.0 16.0 0.02 0.28 0.25 98 1010.5
20260509180025 52 181 6.0 16.0 0.02 0.28 0.25 98 1010.5
20260509175504 52 179 6.0 16.0 0.02 0.28 0.25 98 1010.5
20260509175004 52 184 4.0 14.0 0.02 0.27 0.24 98 1010.5
20260509174504 52 189 4.0 13.0 0.02 0.27 0.24 98 1010.7
20260509174004 52 189 4.0 9.0 0.02 0.27 0.24 98 1010.7
20260509173504 52 192 4.0 9.0 0.03 0.27 0.24 98 1010.7
20260509173004 52 189 4.0 9.0 0.03 0.27 0.24 98 1010.8
20260509172504 52 181 4.0 9.0 0.04 0.27 0.24 98 1010.7
20260509172004 52 184 3.0 7.0 0.04 0.27 0.24 98 1010.7
20260509171504 51 184 4.0 9.0 0.04 0.27 0.24 98 1010.7
20260509171004 51 183 4.0 9.0 0.04 0.26 0.23 98 1010.7
20260509170504 51 184 3.0 7.0 0.04 0.27 0.23 98 1010.6
20260509170004 51 170 3.0 6.0 0.04 0.27 0.23 98 1010.6
20260509165525 51 171 3.0 7.0 0.04 0.28 0.23 98 1010.6
20260509165005 51 173 3.0 7.0 0.03 0.29 0.22 98 1010.6
20260509164525 51 175 3.0 12.0 0.03 0.30 0.22 98 1010.7
20260509164025 51 173 4.0 16.0 0.04 0.31 0.22 98 1010.8
20260509163504 51 166 3.0 14.0 0.03 0.31 0.21 98 1010.9
20260509163025 51 165 3.0 14.0 0.03 0.32 0.21 98 1010.9
20260509162504 51 168 1.0 9.0 0.02 0.31 0.20 98 1010.8
20260509162004 51 169 3.0 10.0 0.02 0.31 0.20 98 1010.9
20260509161504 51 164 3.0 10.0 0.03 0.31 0.20 98 1011.0
20260509161004 51 158 1.0 9.0 0.02 0.30 0.19 98 1011.0
20260509160504 51 161 1.0 7.0 0.02 0.30 0.19 98 1011.0
20260509160004 51 161 1.0 6.0 0.02 0.30 0.19 98 1011.0
20260509155504 51 167 1.0 6.0 0.02 0.30 0.19 98 1011.1
20260509155004 51 184 1.0 6.0 0.02 0.30 0.19 98 1011.1
20260509154525 51 175 1.0 4.0 0.03 0.30 0.19 98 1011.2
20260509154004 51 162 1.0 6.0 0.02 0.29 0.18 98 1011.2
20260509153504 51 169 3.0 10.0 0.02 0.29 0.18 98 1011.3
20260509153004 51 171 3.0 10.0 0.02 0.29 0.18 98 1011.3
20260509152504 51 171 1.0 7.0 0.02 0.29 0.18 98 1011.3
20260509152117 51 170 0.0 4.0 0.02 0.29 0.18 98 1011.3
20260509151504 51 165 1.0 6.0 0.02 0.28 0.17 98 1011.4
20260509151005 50 167 1.0 6.0 0.02 0.28 0.17 98 1011.4
20260509150504 50 171 3.0 7.0 0.02 0.28 0.17 98 1011.5
20260509150004 50 167 3.0 7.0 0.02 0.28 0.17 98 1011.6
20260509145504 50 164 1.0 6.0 0.02 0.28 0.17 98 1011.5
20260509145004 50 170 1.0 6.0 0.02 0.28 0.17 98 1011.5
20260509144504 50 177 1.0 3.0 0.01 0.27 0.16 98 1011.6
20260509144004 50 183 0.0 3.0 0.02 0.27 0.16 98 1011.7
20260509143504 50 192 0.0 1.0 0.02 0.27 0.16 98 1011.7
20260509143004 50 0 0.0 0.0 0.02 0.27 0.16 98 1011.8
20260509142504 50 0 0.0 0.0 0.02 0.27 0.16 98 1011.7
20260509142004 49 0 0.0 0.0 0.02 0.27 0.16 98 1011.6
20260509141504 49 0 0.0 0.0 0.01 0.26 0.15 98 1011.6
20260509141004 49 0 0.0 0.0 0.01 0.26 0.15 98 1011.6
20260509140504 49 0 0.0 0.0 0.01 0.26 0.15 98 1011.5
20260509140005 49 0 0.0 0.0 0.02 0.26 0.15 98 1011.5
20260509135504 49 0 0.0 0.0 0.02 0.26 0.15 98 1011.6
20260509135004 49 0 0.0 0.0 0.02 0.26 0.15 98 1011.6
20260509134504 49 0 0.0 0.0 0.03 0.26 0.15 98 1011.6
20260509134025 49 0 0.0 0.0 0.02 0.25 0.14 98 1011.4
20260509133504 49 0 0.0 0.0 0.02 0.25 0.14 98 1011.4
20260509133025 49 248 0.0 1.0 0.03 0.25 0.14 98 1011.5
20260509132504 49 248 0.0 1.0 0.03 0.25 0.14 98 1011.3
20260509132004 49 248 0.0 1.0 0.03 0.25 0.14 98 1011.3
20260509131504 49 248 0.0 1.0 0.03 0.25 0.14 98 1011.3
20260509131025 49 248 0.0 1.0 0.03 0.25 0.14 98 1011.2
20260509130504 49 0 0.0 0.0 0.03 0.25 0.14 98 1011.1
20260509130004 49 0 0.0 0.0 0.02 0.24 0.13 98 1011.2
20260509125504 49 0 0.0 0.0 0.02 0.24 0.13 98 1011.3
20260509125004 49 0 0.0 0.0 0.02 0.24 0.13 98 1011.3
20260509124503 49 0 0.0 0.0 0.01 0.23 0.12 98 1011.4
20260509124004 49 248 0.0 1.0 0.01 0.23 0.12 98 1011.4
20260509123504 48 248 0.0 1.0 0.01 0.23 0.12 98 1011.4
20260509123004 48 0 0.0 0.0 0.00 0.22 0.11 98 1011.4
20260509122504 48 0 0.0 0.0 0.00 0.22 0.11 98 1011.4
20260509122004 48 0 0.0 0.0 0.00 0.22 0.11 98 1011.4
20260509121503 48 0 0.0 0.0 0.00 0.22 0.11 98 1011.4
20260509121025 48 0 0.0 0.0 0.00 0.22 0.11 98 1011.4
20260509120503 48 0 0.0 0.0 0.00 0.22 0.11 98 1011.4
20260509120004 48 0 0.0 0.0 0.00 0.22 0.11 98 1011.4
20260509115503 48 0 0.0 0.0 0.00 0.22 0.11 98 1011.5
20260509115004 48 0 0.0 0.0 0.00 0.22 0.11 98 1011.5
20260509114504 48 0 0.0 0.0 0.00 0.22 0.11 98 1011.5
20260509114004 48 0 0.0 0.0 0.00 0.22 0.11 98 1011.6
20260509113503 48 0 0.0 0.0 0.00 0.22 0.11 98 1011.6
20260509113004 48 248 0.0 1.0 0.00 0.22 0.11 98 1011.4
20260509112503 48 248 0.0 1.0 0.00 0.22 0.11 98 1011.5
20260509112003 48 248 0.0 3.0 0.00 0.22 0.11 98 1011.5
20260509111503 48 248 0.0 3.0 0.00 0.22 0.11 98 1011.8
20260509111003 47 0 0.0 0.0 0.01 0.22 0.11 98 1011.6
20260509110503 47 0 0.0 0.0 0.01 0.22 0.11 98 1011.8
20260509110004 47 248 0.0 1.0 0.01 0.22 0.11 98 1011.7
20260509105504 47 248 0.0 1.0 0.01 0.22 0.11 98 1011.6
20260509105004 47 247 0.0 1.0 0.01 0.22 0.11 98 1011.6
20260509104524 47 202 0.0 3.0 0.01 0.22 0.11 98 1011.6
20260509104003 47 194 0.0 3.0 0.02 0.22 0.11 98 1011.7
20260509103524 47 0 0.0 0.0 0.02 0.22 0.11 98 1011.7
20260509103004 47 0 0.0 0.0 0.02 0.22 0.11 98 1011.5
20260509102503 47 136 0.0 1.0 0.02 0.22 0.11 98 1011.5
20260509102003 47 136 0.0 1.0 0.02 0.22 0.11 98 1011.6
20260509101504 47 136 0.0 1.0 0.02 0.22 0.11 98 1011.6
20260509101024 47 136 0.0 1.0 0.01 0.21 0.10 98 1011.8
20260509100503 47 136 0.0 1.0 0.01 0.21 0.10 98 1012.0
20260509100004 47 136 1.0 1.0 0.01 0.21 0.10 98 1012.2
20260509095503 47 136 0.0 1.0 0.01 0.21 0.10 98 1012.2
20260509095003 47 136 0.0 1.0 0.01 0.21 0.10 98 1012.0
20260509094503 47 0 0.0 0.0 0.01 0.21 0.10 98 1011.8
20260509094024 47 0 0.0 0.0 0.00 0.20 0.09 98 1011.9
20260509093503 47 0 0.0 0.0 0.00 0.20 0.09 98 1012.0
20260509093003 47 0 0.0 0.0 0.00 0.20 0.09 98 1011.9
20260509092504 47 136 0.0 1.0 0.00 0.20 0.09 98 1011.8
20260509092004 47 136 0.0 1.0 0.00 0.20 0.09 97 1011.9
20260509091503 47 136 0.0 1.0 0.01 0.20 0.09 98 1012.0
20260509091003 47 0 0.0 0.0 0.01 0.20 0.09 98 1012.0
20260509090503 47 178 0.0 4.0 0.01 0.20 0.09 98 1012.0
20260509090024 47 178 0.0 4.0 0.01 0.20 0.09 98 1012.0
20260509085503 47 0 0.0 0.0 0.01 0.20 0.09 98 1012.0
20260509085003 47 0 0.0 0.0 0.01 0.20 0.09 98 1012.1
20260509084503 47 0 0.0 0.0 0.01 0.21 0.09 98 1012.2
20260509084003 47 0 0.0 0.0 0.01 0.21 0.09 98 1012.2
20260509083503 47 0 0.0 0.0 0.01 0.21 0.09 98 1012.3
20260509083003 47 0 0.0 0.0 0.02 0.21 0.09 98 1012.3
20260509082503 47 0 0.0 0.0 0.02 0.21 0.09 98 1012.5
20260509082003 47 0 0.0 0.0 0.03 0.21 0.09 97 1012.5
20260509081503 47 0 0.0 0.0 0.02 0.20 0.08 97 1012.5
20260509081024 47 0 0.0 0.0 0.02 0.20 0.08 97 1012.5
20260509080503 47 0 0.0 0.0 0.03 0.20 0.08 97 1012.3
20260509080025 47 0 0.0 0.0 0.03 0.20 0.08 97 1012.5
20260509075503 47 0 0.0 0.0 0.04 0.20 0.08 97 1012.5
20260509075003 47 0 0.0 0.0 0.04 0.20 0.08 97 1012.4
20260509074503 47 0 0.0 0.0 0.05 0.20 0.08 97 1012.2
20260509074004 47 0 0.0 0.0 0.05 0.20 0.08 97 1012.3
20260509073503 47 0 0.0 0.0 0.06 0.20 0.08 97 1012.3
20260509073003 47 0 0.0 0.0 0.05 0.19 0.07 97 1012.6
20260509072524 47 0 0.0 0.0 0.06 0.19 0.07 97 1012.6
20260509072004 47 0 0.0 0.0 0.05 0.18 0.06 97 1012.7
20260509071503 47 0 0.0 0.0 0.05 0.18 0.06 97 1012.8
20260509071003 47 0 0.0 0.0 0.05 0.18 0.06 97 1012.7
20260509070504 47 0 0.0 0.0 0.04 0.17 0.05 97 1012.7
20260509070004 47 0 0.0 0.0 0.04 0.17 0.05 97 1012.7
20260509065504 47 0 0.0 0.0 0.03 0.16 0.04 97 1012.6
20260509065003 47 0 0.0 0.0 0.03 0.16 0.04 97 1012.7
20260509064503 47 0 0.0 0.0 0.02 0.15 0.03 97 1012.8
20260509064003 46 0 0.0 0.0 0.02 0.15 0.03 97 1012.9
20260509063504 46 0 0.0 0.0 0.02 0.14 0.02 97 1013.1
20260509063003 46 0 0.0 0.0 0.02 0.14 0.02 97 1013.2
20260509062503 46 0 0.0 0.0 0.01 0.13 0.02 96 1013.3
20260509062003 46 0 0.0 0.0 0.01 0.13 0.01 96 1013.4
20260509061504 46 0 0.0 0.0 0.01 0.13 0.01 96 1013.4